EXPRESS-AM44

Last updated on Mon Jun 22 2026 00:03:03 GMT+0000 (Coordinated Universal Time)

1 33595U 09007A 26172.38792899 -.00000092 00000+0 00000+0 0 9994 2 33595 3.4757 78.3467 0003919 3.2357 316.6360 1.00270921 52329
UTC large
Height (km)
Speed (km/s)
/
Latitude / Longitude
Inclination (degrees)
Orbital Period (minutes)
Azimuth
Elevation
Range (km)
Doppler Factor

Next 0 passes for location: London (51.5072 / 0.1276)

No passes found over London.
EXPRESS-AM44